• Join FlightAware (Why Join?)
  • Login
  • US Flag 
11:30PM EST


 

Airport Tracker/Info


-or-


 

Live Flight TrackerFlight Track Log ✈ AAL1588 ✈ 09-Mar-2014 ✈ KLAX - KAUS

Flight Track Log - Related Links

Times and Time Zones

All times are in EDT time to prevent confusion due to time zone crossing. See the AAL1588 flight status page for this flight to view local times or setup timezone preferences in your user account.

Time Position Orientation Groundspeed Altitude Reporting Facility
EDT Latitude Longitude Course Direction KTS MPH feet Rate Location/Type
10:00PM 33.9343 -118.4291 263° West 163 188 1,400  Level FlightAware ADS-B
10:00PM 33.9305 -118.4507 247° West 187 215 1,800 973 Climbing FlightAware ADS-B
10:01PM 33.9230 -118.4652 233° Southwest 206 237 2,000 955 Climbing FlightAware ADS-B
10:01PM 33.9057 -118.4912 231° Southwest 244 281 2,500 1,532 Climbing FlightAware ADS-B
10:01PM 33.8893 -118.5145 229° Southwest 259 298 3,200 2,167 Climbing FlightAware ADS-B
10:02PM 33.8767 -118.5316 227° Southwest 265 305 3,800 2,366 Climbing FlightAware ADS-B
10:03PM 33.8112 -118.5357 173° South 276 318 6,000 2,480 Climbing FlightAware ADS-B
10:03PM 33.7852 -118.5323 174° South 283 326 6,900 2,634 Climbing FlightAware ADS-B
10:03PM 33.7588 -118.5289 174° South 285 328 7,800 2,780 Climbing FlightAware ADS-B
10:04PM 33.7359 -118.5222 154° Southeast 282 325 8,800 3,250 Climbing FlightAware ADS-B
10:04PM 33.7313 -118.5186 143° Southeast 279 321 9,100 3,300 Climbing FlightAware ADS-B
10:04PM 33.7179 -118.4976 119° Southeast 277 319 9,900 2,375 Climbing FlightAware ADS-B
10:05PM 33.6975 -118.4526 119° Southeast 295 339 11,000 1,846 Climbing FlightAware ADS-B
10:05PM 33.6710 -118.3982 120° Southeast 332 382 11,900 1,789 Climbing FlightAware ADS-B
10:05PM 33.6547 -118.3635 116° Southeast 340 391 12,700 2,478 Climbing FlightAware ADS-B
10:06PM 33.6454 -118.3250 98° East 347 399 13,800 2,852 Climbing FlightAware ADS-B
10:06PM 33.6446 -118.2423 90° East 363 418 15,600 2,658 Climbing FlightAware ADS-B
10:07PM 33.6447 -118.1618 90° East 378 435 17,300 2,625 Climbing FlightAware ADS-B
10:08PM 33.6447 -118.0760 90° East 383 441 19,100 2,415 Climbing FlightAware ADS-B
10:09PM 33.6446 -118.0085 90° East 393 452 20,600 2,148 Climbing FlightAware ADS-B
10:09PM 33.6443 -117.8982 90° East 405 466 22,000 2,000 Climbing FlightAware ADS-B
10:10PM 33.6441 -117.8019 90° East 416 479 23,300 1,920 Climbing FlightAware ADS-B
10:10PM 33.6440 -117.7912 90° East 423 487 24,400 2,031 Climbing FlightAware ADS-B
10:11PM 33.6435 -117.6506 90° East 426 490 25,500 1,886 Climbing FlightAware ADS-B (KBNG)
10:12PM 33.6433 -117.5820 90° East 430 495 26,600 1,537 Climbing FlightAware ADS-B
10:12PM 33.6427 -117.4598 90° East 442 509 27,600 1,373 Climbing FlightAware ADS-B
10:13PM 33.6368 -117.3649 95° East 452 520 28,500 1,037 Climbing FlightAware ADS-B
10:14PM 33.6316 -117.2972 95° East 459 528 29,000 385 Climbing FlightAware ADS-B (KBNG)
10:14PM 33.6211 -117.1608 95° East 459 528 29,000  Level FlightAware ADS-B (KBNG)
10:15PM 33.6142 -117.0720 96° East 464 534 29,000  Level FlightAware ADS-B (KBNG)
10:16PM 33.6046 -116.9501 95° East 464 534 29,000  Level FlightAware ADS-B (KBNG)
10:16PM 33.5993 -116.8803 95° East 464 534 29,000  Level FlightAware ADS-B (KBNG)
10:17PM 33.5926 -116.7968 96° East 463 533 29,000  Level FlightAware ADS-B (KBNG)
10:17PM 33.5864 -116.7198 96° East 463 533 29,000  Level FlightAware ADS-B (KBNG)
10:18PM 33.5794 -116.6343 96° East 463 533 29,000  Level FlightAware ADS-B (KBNG)
10:18PM 33.5725 -116.5505 96° East 463 533 29,000  Level FlightAware ADS-B (KBNG)
10:19PM 33.5639 -116.4476 96° East 462 532 29,000  Level FlightAware ADS-B (KBNG)
10:20PM 33.5571 -116.3662 96° East 461 531 29,000  Level FlightAware ADS-B (KBNG)
10:20PM 33.5479 -116.2569 96° East 460 529 29,000  Level FlightAware ADS-B (KBNG)
10:21PM 33.5404 -116.1685 96° East 458 527 29,000  Level FlightAware ADS-B (KBNG)
10:21PM 33.5335 -116.0867 96° East 457 526 29,000  Level FlightAware ADS-B (KBNG)
10:23PM 33.5218 -115.9513 96° East 456 525 29,000  Level FlightAware ADS-B (KBNG)
10:23PM 33.5081 -115.7950 96° East 457 526 29,000 -50 Level FlightAware ADS-B (KBNG)
10:25PM 33.4928 -115.6175 96° East 457 526 28,900  Descending Los Angeles Center
10:26PM 33.4772 -115.4664 97° East 457 526 29,000 48 Climbing Los Angeles Center
10:27PM 33.4639 -115.3139 96° East 459 528 29,000  Level Los Angeles Center
10:28PM 33.4503 -115.1631 96° East 458 527 29,000  Level Los Angeles Center
10:29PM 33.4331 -114.9814 96° East 457 526 29,000  Level Los Angeles Center
10:30PM 33.4172 -114.8294 97° East 460 529 29,000  Level Los Angeles Center
10:31PM 33.4025 -114.6778 97° East 463 533 29,000 -48 Level Los Angeles Center
10:32PM 33.3889 -114.5253 96° East 461 531 28,900  Descending Los Angeles Center
10:33PM 33.3731 -114.3742 97° East 460 529 29,000 49 Climbing Los Angeles Center
10:34PM 33.3597 -114.2236 96° East 456 525 29,000  Level Los Angeles Center
10:35PM 33.3486 -114.0878 96° East 460 529 29,000  Level Albuquerque Center
10:36PM 33.3283 -113.9072 98° East 457 526 29,000  Level Albuquerque Center
10:37PM 33.3128 -113.7575 97° East 456 525 29,000  Level Albuquerque Center
10:38PM 33.2975 -113.6094 97° East 451 519 29,000  Level Albuquerque Center
10:39PM 33.2811 -113.4589 97° East 454 522 29,000  Level Albuquerque Center
10:44PM 33.1878 -112.6308 98° East 449 517 29,000  Level FlightAware ADS-B (VRMM / MLE)
10:45PM 33.1732 -112.5043 98° East 445 512 29,000  Level FlightAware ADS-B
10:45PM 33.1723 -112.4968 97° East 443 510 29,000  Level FlightAware ADS-B (VRMM / MLE)
10:46PM 33.1624 -112.4107 98° East 444 511 29,000  Level FlightAware ADS-B
10:46PM 33.1526 -112.3263 97° East 442 509 29,000  Level FlightAware ADS-B (VRMM / MLE)
10:47PM 33.1439 -112.2526 97° East 441 507 29,000  Level FlightAware ADS-B (VRMM / MLE)
10:47PM 33.1344 -112.1720 97° East 441 507 29,000  Level FlightAware ADS-B (VRMM / MLE)
10:48PM 33.1251 -112.0935 97° East 440 506 29,000  Level FlightAware ADS-B (VRMM / MLE)
10:48PM 33.1208 -112.0571 98° East 442 509 29,000  Level FlightAware ADS-B
10:49PM 33.1144 -112.0035 97° East 440 506 29,000  Level FlightAware ADS-B (VRMM / MLE)
10:49PM 33.1087 -111.9560 98° East 442 509 29,000  Level FlightAware ADS-B (KTLH)
10:50PM 33.0972 -111.8598 98° East 442 509 29,000  Level FlightAware ADS-B (KTLH)
10:50PM 33.0867 -111.7735 98° East 442 509 29,000  Level FlightAware ADS-B (KTLH)
10:51PM 33.0781 -111.7021 98° East 442 509 29,000  Level FlightAware ADS-B
10:52PM 33.0617 -111.5686 98° East 442 509 29,000  Level FlightAware ADS-B (VRMM / MLE)
10:52PM 33.0481 -111.4585 99° East 442 509 29,000  Level FlightAware ADS-B (VRMM / MLE)
10:53PM 33.0351 -111.3550 99° East 441 507 29,000  Level FlightAware ADS-B (VRMM / MLE)
10:54PM 33.0246 -111.2703 99° East 441 507 29,000 646 Level FlightAware ADS-B (VRMM / MLE)
10:54PM 33.0158 -111.2004 99° East 434 499 29,700 1,400 Climbing FlightAware ADS-B (VRMM / MLE)
10:55PM 33.0067 -111.1287 99° East 434 499 30,400 1,254 Climbing FlightAware ADS-B (VRMM / MLE)
10:55PM 32.9957 -111.0421 99° East 433 498 31,100 1,059 Climbing FlightAware ADS-B (VRMM / MLE)
10:56PM 32.9878 -110.9796 99° East 434 499 31,600 1,014 Climbing FlightAware ADS-B
10:57PM 32.9749 -110.8793 99° East 427 491 32,300 1,091 Climbing FlightAware ADS-B
10:57PM 32.9633 -110.7898 99° East 425 489 33,000 1,059 Climbing FlightAware ADS-B (VRMM / MLE)
10:58PM 32.9536 -110.7154 99° East 421 484 33,500 940 Climbing FlightAware ADS-B (VRMM / MLE)
10:59PM 32.9386 -110.6007 99° East 420 483 34,300 907 Climbing FlightAware ADS-B
10:59PM 32.9379 -110.5947 99° East 417 480 34,800 532 Climbing FlightAware ADS-B
11:00PM 32.9152 -110.4225 99° East 417 480 35,000 140 Climbing FlightAware ADS-B
11:01PM 32.9026 -110.3287 99° East 417 480 35,000  Level FlightAware ADS-B
11:01PM 32.8913 -110.2445 99° East 416 479 35,000  Level FlightAware ADS-B
11:02PM 32.8792 -110.1533 99° East 416 479 35,000  Level FlightAware ADS-B
11:02PM 32.8931 -110.2577 99° East 416 479 35,000  Level FlightAware ADS-B
11:04PM 32.8539 -109.9673 99° East 417 480 35,000  Level FlightAware ADS-B
11:05PM 32.8174 -109.7025 99° East 414 476 35,000  Level FlightAware ADS-B
11:07PM 32.8136 -109.6752 100° East 413 475 35,000  Level FlightAware ADS-B
11:08PM 32.7767 -109.4118 100° East 414 476 35,000  Level FlightAware ADS-B
11:09PM 32.7381 -109.1472 100° East 416 479 35,000  Level Albuquerque Center
11:11PM 32.7194 -109.0086 99° East 410 472 35,000  Level Albuquerque Center
11:12PM 32.6967 -108.8581 100° East 413 475 35,000  Level Albuquerque Center
11:13PM 32.6758 -108.7242 100° East 416 479 35,000  Level Albuquerque Center
11:14PM 32.6569 -108.5914 100° East 413 475 35,000  Level Albuquerque Center
11:15PM 32.6378 -108.4589 100° East 412 474 35,000  Level Albuquerque Center
11:16PM 32.6178 -108.3281 100° East 408 470 35,000  Level Albuquerque Center
11:17PM 32.5972 -108.1992 101° East 403 464 35,000  Level Albuquerque Center
11:18PM 32.5739 -108.0433 100° East 402 463 35,000  Level Albuquerque Center
11:19PM 32.5536 -107.9117 100° East 405 466 35,000  Level Albuquerque Center
11:20PM 32.5350 -107.7933 101° East 405 466 35,000  Level Albuquerque Center
11:21PM 32.5150 -107.6636 100° East 403 464 35,000  Level Albuquerque Center
11:22PM 32.4914 -107.5089 100° East 400 460 35,000  Level Albuquerque Center
11:23PM 32.4747 -107.3944 100° East 400 460 35,000  Level Albuquerque Center
11:24PM 32.4544 -107.2642 100° East 402 463 35,000  Level Albuquerque Center
11:25PM 32.4314 -107.1144 100° East 396 456 35,000  Level Albuquerque Center
11:26PM 32.4092 -106.9792 101° East 392 451 35,000  Level Albuquerque Center
11:27PM 32.3892 -106.8536 101° East 389 448 35,000 -49 Level Albuquerque Center
11:28PM 32.3686 -106.7306 101° East 392 451 34,900  Descending Albuquerque Center
11:29PM 32.3472 -106.6056 101° East 390 449 35,000 49 Climbing Albuquerque Center
11:30PM 32.3264 -106.4783 101° East 395 455 35,000  Level Albuquerque Center
11:31PM 32.3050 -106.3517 101° East 394 453 35,000  Level Albuquerque Center
11:32PM 32.2822 -106.2161 101° East 394 453 35,000  Level Albuquerque Center
11:33PM 32.2608 -106.0892 101° East 393 452 35,000  Level Albuquerque Center
11:34PM 32.2392 -105.9644 102° East 391 450 35,000  Level Albuquerque Center
11:35PM 32.2181 -105.8392 101° East 389 448 35,000 -49 Level Albuquerque Center
11:36PM 32.1961 -105.7147 102° East 388 447 34,900  Descending Albuquerque Center
11:37PM 32.1711 -105.5639 101° East 391 450 35,000  Climbing Albuquerque Center
11:38PM 32.1481 -105.4361 102° East 396 456 34,900 -49 Descending Albuquerque Center
11:39PM 32.1253 -105.3067 102° East 401 461 34,900 49 Level Albuquerque Center
11:40PM 32.1036 -105.1761 101° East 398 458 35,000  Climbing Albuquerque Center
11:41PM 32.0794 -105.0483 103° East 405 466 34,900  Descending Albuquerque Center
11:42PM 32.0567 -104.9142 101° East 410 472 35,000 49 Climbing Albuquerque Center
11:43PM 32.0322 -104.7783 102° East 415 478 35,000  Level Albuquerque Center
11:44PM 32.0083 -104.6431 102° East 420 483 35,000  Level Albuquerque Center
11:45PM 31.9836 -104.5064 102° East 424 488 35,000  Level Albuquerque Center
11:46PM 31.9519 -104.3406 103° East 429 494 35,000 -49 Level Albuquerque Center
11:47PM 31.9258 -104.2017 102° East 432 497 34,900  Descending Albuquerque Center
11:48PM 31.9011 -104.0611 102° East 431 496 35,000 49 Climbing Albuquerque Center
11:49PM 31.8747 -103.9211 102° East 436 502 35,000  Level Albuquerque Center
11:50PM 31.8503 -103.7842 102° East 437 503 35,000  Level Albuquerque Center
11:52PM 31.8228 -103.6425 103° East 438 504 35,000  Level Albuquerque Center
11:53PM 31.7958 -103.5014 103° East 441 507 35,000  Level Albuquerque Center
11:54PM 31.7683 -103.3622 103° East 445 512 35,000 -244 Level Albuquerque Center
11:55PM 31.7406 -103.2200 103° East 446 513 34,500 -829 Descending Albuquerque Center
11:56PM 31.7081 -103.0558 103° East 437 503 33,300 -738 Descending Albuquerque Center
11:57PM 31.6786 -102.9142 104° East 439 505 33,000 -836 Descending Albuquerque Center
11:58PM 31.6514 -102.7697 102° East 446 513 31,600 -1,623 Descending Albuquerque Center
11:59PM 31.6225 -102.6236 103° East 452 520 29,700 -1,415 Descending Albuquerque Center
12:00AM 31.5939 -102.4783 103° East 456 525 28,700 -976 Descending Albuquerque Center
12:01AM 31.5653 -102.3325 103° East 456 525 27,700 -885 Descending Albuquerque Center
12:02AM 31.5328 -102.1853 104° East 461 531 26,900 -495 Descending Albuquerque Center
12:02AM 31.5100 -102.1006 107° East 455 524 26,900 63 Level Houston Center
12:03AM 31.4694 -101.9592 109° East 455 524 27,000 50 Climbing Houston Center
12:04AM 31.4311 -101.8175 108° East 455 524 27,000 -50 Level Houston Center
12:05AM 31.3914 -101.6781 108° East 453 521 26,900  Descending Houston Center
12:06AM 31.3522 -101.5392 108° East 453 521 27,000  Climbing Houston Center
12:07AM 31.3142 -101.3989 108° East 453 521 26,900  Descending Houston Center
12:08AM 31.2742 -101.2594 109° East 453 521 27,000  Climbing Houston Center
12:09AM 31.2347 -101.1206 108° East 453 521 26,900  Descending Houston Center
12:10AM 31.1961 -100.9864 109° East 453 521 27,000 -198 Climbing Houston Center
12:11AM 31.1567 -100.8489 109° East 449 517 26,500 -793 Descending Houston Center
12:12AM 31.1181 -100.7167 109° East 433 498 25,400 -744 Descending Houston Center
12:13AM 31.0814 -100.5853 108° East 426 490 25,000 -248 Descending Houston Center
12:14AM 31.0433 -100.4564 109° East 425 489 24,900  Descending Houston Center
12:15AM 31.0050 -100.3267 109° East 424 488 25,000 50 Climbing Houston Center
12:16AM 30.9669 -100.1975 109° East 423 487 25,000 -50 Level Houston Center
12:17AM 30.9294 -100.0686 109° East 419 482 24,900 -99 Descending Houston Center
12:18AM 30.8908 -99.9394 109° East 420 483 24,800 -550 Descending Houston Center
12:19AM 30.8522 -99.8111 109° East 420 483 23,800 -942 Descending Houston Center
12:20AM 30.8158 -99.6847 109° East 416 479 22,900 -843 Descending Houston Center
12:21AM 30.7772 -99.5594 110° East 415 478 22,100 -744 Descending Houston Center
12:22AM 30.7414 -99.4375 109° East 405 466 21,400 -496 Descending Houston Center
12:23AM 30.7050 -99.3150 109° East 403 464 21,100 -1,269 Descending Houston Center
12:29AM 30.4805 -98.5845 110° East 382 440 12,600 -1,434 Descending FlightAware ADS-B
12:30AM 30.4621 -98.5254 109° East 350 403 11,800 -1,030 Descending FlightAware ADS-B
12:31AM 30.4303 -98.4184 108° East 301 346 10,900 -800 Descending FlightAware ADS-B
12:31AM 30.4274 -98.4031 101° East 297 342 10,800 -1,034 Descending FlightAware ADS-B
12:32AM 30.4251 -98.3720 94° East 292 336 10,400 -1,171 Descending FlightAware ADS-B
12:32AM 30.4238 -98.3405 93° East 288 331 10,000 -1,333 Descending FlightAware ADS-B
12:32AM 30.4228 -98.3175 93° East 285 328 9,600 -1,317 Descending FlightAware ADS-B
12:33AM 30.4212 -98.2784 93° East 281 323 9,100 -1,421 Descending FlightAware ADS-B
12:33AM 30.4204 -98.2594 93° East 282 325 8,700 -1,500 Descending FlightAware ADS-B
12:33AM 30.4194 -98.2357 93° East 283 326 8,400 -1,400 Descending FlightAware ADS-B
12:33AM 30.4185 -98.2146 93° East 283 326 8,000 -1,600 Descending FlightAware ADS-B
12:34AM 30.4175 -98.1903 93° East 287 330 7,600 -1,548 Descending FlightAware ADS-B
12:34AM 30.4167 -98.1672 92° East 288 331 7,200 -1,400 Descending FlightAware ADS-B
12:34AM 30.4159 -98.1440 92° East 286 329 6,900 -1,029 Descending FlightAware ADS-B
12:34AM 30.4147 -98.1140 93° East 280 322 6,600 -1,029 Descending FlightAware ADS-B
12:35AM 30.4137 -98.0916 93° East 273 314 6,300 -1,000 Descending FlightAware ADS-B
12:35AM 30.4124 -98.0695 94° East 268 308 6,100 -968 Descending FlightAware ADS-B
12:35AM 30.4109 -98.0470 94° East 265 305 5,800 -1,313 Descending FlightAware ADS-B
12:35AM 30.4096 -98.0252 94° East 264 304 5,400 -1,161 Descending FlightAware ADS-B
12:36AM 30.4081 -98.0038 95° East 261 300 5,200 -1,000 Descending FlightAware ADS-B
12:36AM 30.4066 -97.9831 95° East 258 297 4,900 -1,071 Descending FlightAware ADS-B
12:36AM 30.4053 -97.9648 95° East 255 293 4,700 -1,000 Descending FlightAware ADS-B
12:36AM 30.4048 -97.9591 97° East 254 292 4,600 -750 Descending FlightAware ADS-B
12:36AM 30.4041 -97.9551 100° East 253 291 4,600 -857 Level FlightAware ADS-B
12:36AM 30.4031 -97.9498 103° East 252 290 4,500 -1,000 Descending FlightAware ADS-B
12:36AM 30.4005 -97.9389 105° East 251 289 4,400 -1,000 Descending FlightAware ADS-B (KGTU)
12:37AM 30.3992 -97.9332 105° East 251 289 4,300 -900 Descending FlightAware ADS-B
12:37AM 30.3945 -97.9134 105° East 251 289 4,100 -1,059 Descending FlightAware ADS-B
12:37AM 30.3892 -97.8900 105° East 246 283 3,700 -909 Descending FlightAware ADS-B
12:37AM 30.3849 -97.8712 105° East 237 273 3,600 -300 Descending FlightAware ADS-B
12:37AM 30.3835 -97.8651 103° East 230 265 3,600 -400 Level FlightAware ADS-B (KGTU)
12:38AM 30.3809 -97.8533 104° East 224 258 3,500 -692 Descending FlightAware ADS-B
12:38AM 30.3771 -97.8355 104° East 218 251 3,300 -774 Descending FlightAware ADS-B
12:38AM 30.3736 -97.8188 104° East 211 243 3,100 -800 Descending FlightAware ADS-B
12:38AM 30.3700 -97.8025 104° East 201 231 2,900 -511 Descending FlightAware ADS-B
12:39AM 30.3628 -97.7708 105° East 196 226 2,700 -203 Descending FlightAware ADS-B
12:39AM 30.3516 -97.7487 133° Southeast 182 209 2,700  Level FlightAware ADS-B
12:40AM 30.3424 -97.7386 137° Southeast 181 208 2,700  Level FlightAware ADS-B
12:40AM 30.3328 -97.7283 137° Southeast 181 208 2,700 -188 Level FlightAware ADS-B
12:40AM 30.3232 -97.7176 135° Southeast 174 200 2,600 -581 Descending FlightAware ADS-B
12:40AM 30.3150 -97.7081 135° Southeast 166 191 2,400 -692 Descending FlightAware ADS-B
12:41AM 30.3090 -97.7010 134° Southeast 160 184 2,300 -857 Descending FlightAware ADS-B
12:41AM 30.3039 -97.6950 134° Southeast 154 177 2,100 -818 Descending FlightAware ADS-B
12:41AM 30.2984 -97.6885 134° Southeast 149 171 2,000 -769 Descending FlightAware ADS-B
12:41AM 30.2813 -97.6808 151° Southeast 150 173 1,600 -774 Descending FlightAware ADS-B
12:41AM 30.2789 -97.6806 178° South 150 173 1,600 -800 Level FlightAware ADS-B
12:42AM 30.2711 -97.6808 183° South 150 173 1,400 -1,000 Descending FlightAware ADS-B
12:42AM 30.2664 -97.6809 181° South 148 170 1,300 -857 Descending FlightAware ADS-B
12:42AM 30.2612 -97.6808 178° South 146 168 1,200 -750 Descending FlightAware ADS-B
12:42AM 30.2555 -97.6805 178° South 145 167 1,100 -750 Descending FlightAware ADS-B
12:42AM 30.2452 -97.6803 178° South 145 167 900 -128 Descending FlightAware ADS-B
12:44AM 30.1961 -97.6769 178° South 152 175 900  Level Houston Center